Year,Month,Day,Hour,Minute,Value (Times are PST for temperature in C)
2009,08,26,00,00,12.90
2009,08,26,00,01,12.90
2009,08,26,00,02,12.80
2009,08,26,00,03,12.80
2009,08,26,00,04,12.80
2009,08,26,00,05,12.80
2009,08,26,00,06,12.70
2009,08,26,00,07,12.70
2009,08,26,00,08,12.70
2009,08,26,00,09,12.70
2009,08,26,00,10,12.70
2009,08,26,00,11,12.70
2009,08,26,00,12,12.70
2009,08,26,00,13,12.70
2009,08,26,00,14,12.70
2009,08,26,00,15,12.70
2009,08,26,00,16,12.70
2009,08,26,00,17,12.70
2009,08,26,00,18,12.70
2009,08,26,00,19,12.70
2009,08,26,00,20,12.60
2009,08,26,00,21,12.60
2009,08,26,00,22,12.60
2009,08,26,00,23,12.60
2009,08,26,00,24,12.60
2009,08,26,00,25,12.50
2009,08,26,00,26,12.50
2009,08,26,00,27,12.40
2009,08,26,00,28,12.40
2009,08,26,00,29,12.40
2009,08,26,00,30,12.30
2009,08,26,00,31,12.30
2009,08,26,00,32,12.30
2009,08,26,00,33,12.30
2009,08,26,00,34,12.20
2009,08,26,00,35,12.20
2009,08,26,00,36,12.20
2009,08,26,00,37,12.20
2009,08,26,00,38,12.20
2009,08,26,00,39,12.20
2009,08,26,00,40,12.20
2009,08,26,00,41,12.20
2009,08,26,00,42,12.20
2009,08,26,00,43,12.20
2009,08,26,00,44,12.20
2009,08,26,00,45,12.20
2009,08,26,00,46,12.10
2009,08,26,00,47,12.10
2009,08,26,00,48,12.10
2009,08,26,00,49,12.10
2009,08,26,00,50,12.10
2009,08,26,00,51,12.10
2009,08,26,00,52,12.10
2009,08,26,00,53,12.10
2009,08,26,00,54,12.00
2009,08,26,00,55,12.00
2009,08,26,00,56,12.00
2009,08,26,00,57,11.90
2009,08,26,00,58,11.90
2009,08,26,00,59,11.90
2009,08,26,01,00,11.90
2009,08,26,01,01,11.90
2009,08,26,01,02,11.90
2009,08,26,01,03,11.90
2009,08,26,01,04,11.90
2009,08,26,01,05,11.90
2009,08,26,01,06,11.90
2009,08,26,01,07,11.90
2009,08,26,01,08,11.90
2009,08,26,01,09,11.90
2009,08,26,01,10,11.90
2009,08,26,01,11,11.90
2009,08,26,01,12,11.80
2009,08,26,01,13,11.80
2009,08,26,01,14,11.80
2009,08,26,01,15,11.80
2009,08,26,01,16,11.80
2009,08,26,01,17,11.80
2009,08,26,01,18,11.80
2009,08,26,01,19,11.80
2009,08,26,01,20,11.80
2009,08,26,01,21,11.80
2009,08,26,01,22,11.70
2009,08,26,01,23,11.70
2009,08,26,01,24,11.70
2009,08,26,01,25,11.70
2009,08,26,01,26,11.70
2009,08,26,01,27,11.60
2009,08,26,01,28,11.60
2009,08,26,01,29,11.60
2009,08,26,01,30,11.60
2009,08,26,01,31,11.60
2009,08,26,01,32,11.60
2009,08,26,01,33,11.60
2009,08,26,01,34,11.60
2009,08,26,01,35,11.60
2009,08,26,01,36,11.60
2009,08,26,01,37,11.60
2009,08,26,01,38,11.60
2009,08,26,01,39,11.60
2009,08,26,01,40,11.60
2009,08,26,01,41,11.60
2009,08,26,01,42,11.60
2009,08,26,01,43,11.60
2009,08,26,01,44,11.50
2009,08,26,01,45,11.50
2009,08,26,01,46,11.50
2009,08,26,01,47,11.50
2009,08,26,01,48,11.60
2009,08,26,01,49,11.60
2009,08,26,01,50,11.60
2009,08,26,01,51,11.60
2009,08,26,01,52,11.60
2009,08,26,01,53,11.60
2009,08,26,01,54,11.60
2009,08,26,01,55,11.60
2009,08,26,01,56,11.50
2009,08,26,01,57,11.50
2009,08,26,01,58,11.50
2009,08,26,01,59,11.50
2009,08,26,02,00,11.50
2009,08,26,02,01,11.50
2009,08,26,02,02,11.50
2009,08,26,02,03,11.50
2009,08,26,02,04,11.50
2009,08,26,02,05,11.50
2009,08,26,02,06,11.50
2009,08,26,02,07,11.40
2009,08,26,02,08,11.40
2009,08,26,02,09,11.40
2009,08,26,02,10,11.40
2009,08,26,02,11,11.30
2009,08,26,02,12,11.30
2009,08,26,02,13,11.30
2009,08,26,02,14,11.30
2009,08,26,02,15,11.30
2009,08,26,02,16,11.20
2009,08,26,02,17,11.20
2009,08,26,02,18,11.20
2009,08,26,02,19,11.20
2009,08,26,02,20,11.20
2009,08,26,02,21,11.20
2009,08,26,02,22,11.20
2009,08,26,02,23,11.20
2009,08,26,02,24,11.20
2009,08,26,02,25,11.20
2009,08,26,02,26,11.20
2009,08,26,02,27,11.20
2009,08,26,02,28,11.20
2009,08,26,02,29,11.20
2009,08,26,02,30,11.20
2009,08,26,02,31,11.20
2009,08,26,02,32,11.20
2009,08,26,02,33,11.20
2009,08,26,02,34,11.20
2009,08,26,02,35,11.30
2009,08,26,02,36,11.30
2009,08,26,02,37,11.30
2009,08,26,02,38,11.30
2009,08,26,02,39,11.30
2009,08,26,02,40,11.30
2009,08,26,02,41,11.30
2009,08,26,02,42,11.30
2009,08,26,02,43,11.30
2009,08,26,02,44,11.30
2009,08,26,02,45,11.30
2009,08,26,02,46,11.30
2009,08,26,02,47,11.30
2009,08,26,02,48,11.30
2009,08,26,02,49,11.30
2009,08,26,02,50,11.20
2009,08,26,02,51,11.20
2009,08,26,02,52,11.20
2009,08,26,02,53,11.10
2009,08,26,02,54,11.10
2009,08,26,02,55,11.10
2009,08,26,02,56,11.10
2009,08,26,02,57,11.10
2009,08,26,02,58,11.10
2009,08,26,02,59,11.00
2009,08,26,03,00,11.00
2009,08,26,03,01,11.00
2009,08,26,03,02,11.00
2009,08,26,03,03,11.00
2009,08,26,03,04,11.00
2009,08,26,03,05,11.00
2009,08,26,03,06,11.00
2009,08,26,03,07,11.00
2009,08,26,03,08,11.00
2009,08,26,03,09,11.00
2009,08,26,03,10,11.00
2009,08,26,03,11,11.00
2009,08,26,03,12,11.00
2009,08,26,03,13,11.00
2009,08,26,03,14,11.10
2009,08,26,03,15,11.10
2009,08,26,03,16,11.10
2009,08,26,03,17,11.10
2009,08,26,03,18,11.10
2009,08,26,03,19,11.10
2009,08,26,03,20,11.10
2009,08,26,03,21,11.20
2009,08,26,03,22,11.20
2009,08,26,03,23,11.20
2009,08,26,03,24,11.20
2009,08,26,03,25,11.20
2009,08,26,03,26,11.20
2009,08,26,03,27,11.10
2009,08,26,03,28,11.10
2009,08,26,03,29,11.10
2009,08,26,03,30,11.10
2009,08,26,03,31,11.10
2009,08,26,03,32,11.10
2009,08,26,03,33,11.10
2009,08,26,03,34,11.10
2009,08,26,03,35,11.10
2009,08,26,03,36,11.10
2009,08,26,03,37,11.10
2009,08,26,03,38,11.10
2009,08,26,03,39,11.00
2009,08,26,03,40,11.00
2009,08,26,03,41,11.00
2009,08,26,03,42,11.00
2009,08,26,03,43,11.00
2009,08,26,03,44,11.00
2009,08,26,03,45,11.00
2009,08,26,03,46,11.00
2009,08,26,03,47,11.00
2009,08,26,03,48,11.00
2009,08,26,03,49,11.00
2009,08,26,03,50,11.00
2009,08,26,03,51,11.00
2009,08,26,03,52,10.90
2009,08,26,03,53,10.90
2009,08,26,03,54,10.90
2009,08,26,03,55,10.90
2009,08,26,03,56,10.90
2009,08,26,03,57,10.90
2009,08,26,03,58,10.90
2009,08,26,03,59,10.80
2009,08,26,04,00,10.80
2009,08,26,04,01,10.80
2009,08,26,04,02,10.90
2009,08,26,04,03,10.90
2009,08,26,04,04,10.90
2009,08,26,04,05,10.90
2009,08,26,04,06,10.90
2009,08,26,04,07,10.90
2009,08,26,04,08,10.80
2009,08,26,04,09,10.80
2009,08,26,04,10,10.80
2009,08,26,04,11,10.80
2009,08,26,04,12,10.80
2009,08,26,04,13,10.80
2009,08,26,04,14,10.70
2009,08,26,04,15,10.70
2009,08,26,04,16,10.70
2009,08,26,04,17,10.70
2009,08,26,04,18,10.70
2009,08,26,04,19,10.70
2009,08,26,04,20,10.70
2009,08,26,04,21,10.70
2009,08,26,04,22,10.70
2009,08,26,04,23,10.70
2009,08,26,04,24,10.70
2009,08,26,04,25,10.70
2009,08,26,04,26,10.70
2009,08,26,04,27,10.70
2009,08,26,04,28,10.70
2009,08,26,04,29,10.70
2009,08,26,04,30,10.70
2009,08,26,04,31,10.70
2009,08,26,04,32,10.70
2009,08,26,04,33,10.70
2009,08,26,04,34,10.70
2009,08,26,04,35,10.70
2009,08,26,04,36,10.60
2009,08,26,04,37,10.60
2009,08,26,04,38,10.60
2009,08,26,04,39,10.50
2009,08,26,04,40,10.50
2009,08,26,04,41,10.50
2009,08,26,04,42,10.50
2009,08,26,04,43,10.50
2009,08,26,04,44,10.50
2009,08,26,04,45,10.50
2009,08,26,04,46,10.50
2009,08,26,04,47,10.50
2009,08,26,04,48,10.50
2009,08,26,04,49,10.40
2009,08,26,04,50,10.40
2009,08,26,04,51,10.40
2009,08,26,04,52,10.50
2009,08,26,04,53,10.50
2009,08,26,04,54,10.50
2009,08,26,04,55,10.50
2009,08,26,04,56,10.50
2009,08,26,04,57,10.50
2009,08,26,04,58,10.50
2009,08,26,04,59,10.50
2009,08,26,05,00,10.50
2009,08,26,05,01,10.50
2009,08,26,05,02,10.50
2009,08,26,05,03,10.40
2009,08,26,05,04,10.40
2009,08,26,05,05,10.40
2009,08,26,05,06,10.30
2009,08,26,05,07,10.30
2009,08,26,05,08,10.30
2009,08,26,05,09,10.30
2009,08,26,05,10,10.20
2009,08,26,05,11,10.20
2009,08,26,05,12,10.20
2009,08,26,05,13,10.20
2009,08,26,05,14,10.20
2009,08,26,05,15,10.20
2009,08,26,05,16,10.10
2009,08,26,05,17,10.10
2009,08,26,05,18,10.10
2009,08,26,05,19,10.10
2009,08,26,05,20,10.10
2009,08,26,05,21,10.00
2009,08,26,05,22,10.00
2009,08,26,05,23,10.00
2009,08,26,05,24,10.00
2009,08,26,05,25,10.00
2009,08,26,05,26,10.00
2009,08,26,05,27,10.00
2009,08,26,05,28,10.00
2009,08,26,05,29,10.00
2009,08,26,05,30,10.00
2009,08,26,05,31,10.00
2009,08,26,05,32,10.00
2009,08,26,05,33,10.00
2009,08,26,05,34,10.00
2009,08,26,05,35,10.00
2009,08,26,05,36,9.90
2009,08,26,05,37,9.90
2009,08,26,05,38,9.90
2009,08,26,05,39,9.80
2009,08,26,05,40,9.80
2009,08,26,05,41,9.80
2009,08,26,05,42,9.80
2009,08,26,05,43,9.70
2009,08,26,05,44,9.70
2009,08,26,05,45,9.70
2009,08,26,05,46,9.70
2009,08,26,05,47,9.70
2009,08,26,05,48,9.70
2009,08,26,05,49,9.70
2009,08,26,05,50,9.70
2009,08,26,05,51,9.70
2009,08,26,05,52,9.70
2009,08,26,05,53,9.70
2009,08,26,05,54,9.70
2009,08,26,05,55,9.70
2009,08,26,05,56,9.70
2009,08,26,05,57,9.60
2009,08,26,05,58,9.60
2009,08,26,05,59,9.60
2009,08,26,06,00,9.60
2009,08,26,06,01,9.60
2009,08,26,06,02,9.60
2009,08,26,06,03,9.50
2009,08,26,06,04,9.50
2009,08,26,06,05,9.50
2009,08,26,06,06,9.50
2009,08,26,06,07,9.50
2009,08,26,06,08,9.40
2009,08,26,06,09,9.40
2009,08,26,06,10,9.40
2009,08,26,06,11,9.40
2009,08,26,06,12,9.40
2009,08,26,06,13,9.40
2009,08,26,06,14,9.40
2009,08,26,06,15,9.40
2009,08,26,06,16,9.40
2009,08,26,06,17,9.40
2009,08,26,06,18,9.40
2009,08,26,06,19,9.40
2009,08,26,06,20,9.40
2009,08,26,06,21,9.40
2009,08,26,06,22,9.40
2009,08,26,06,23,9.40
2009,08,26,06,24,9.40
2009,08,26,06,25,9.40
2009,08,26,06,26,9.40
2009,08,26,06,27,9.40
2009,08,26,06,28,9.40
2009,08,26,06,29,9.30
2009,08,26,06,30,9.30
2009,08,26,06,31,9.30
2009,08,26,06,32,9.30
2009,08,26,06,33,9.30
2009,08,26,06,34,9.30
2009,08,26,06,35,9.30
2009,08,26,06,36,9.30
2009,08,26,06,37,9.30
2009,08,26,06,38,9.30
2009,08,26,06,39,9.30
2009,08,26,06,40,9.30
2009,08,26,06,41,9.30
2009,08,26,06,42,9.30
2009,08,26,06,43,9.30
2009,08,26,06,44,9.30
2009,08,26,06,45,9.30
2009,08,26,06,46,9.30
2009,08,26,06,47,9.30
2009,08,26,06,48,9.30
2009,08,26,06,49,9.30
2009,08,26,06,50,9.30
2009,08,26,06,51,9.30
2009,08,26,06,52,9.30
2009,08,26,06,53,9.30
2009,08,26,06,54,9.30
2009,08,26,06,55,9.30
2009,08,26,06,56,9.40
2009,08,26,06,57,9.40
2009,08,26,06,58,9.40
2009,08,26,06,59,9.40
2009,08,26,07,00,9.40
2009,08,26,07,01,9.40
2009,08,26,07,02,9.40
2009,08,26,07,03,9.40
2009,08,26,07,04,9.40
2009,08,26,07,05,9.50
2009,08,26,07,06,9.50
2009,08,26,07,07,9.60
2009,08,26,07,08,9.60
2009,08,26,07,09,9.60
2009,08,26,07,10,9.60
2009,08,26,07,11,9.70
2009,08,26,07,12,9.70
2009,08,26,07,13,9.70
2009,08,26,07,14,9.80
2009,08,26,07,15,9.80
2009,08,26,07,16,9.90
2009,08,26,07,17,9.90
2009,08,26,07,18,10.00
2009,08,26,07,19,10.00
2009,08,26,07,20,10.10
2009,08,26,07,21,10.10
2009,08,26,07,22,10.20
2009,08,26,07,23,10.30
2009,08,26,07,24,10.30
2009,08,26,07,25,10.40
2009,08,26,07,26,10.50
2009,08,26,07,27,10.50
2009,08,26,07,28,10.60
2009,08,26,07,29,10.70
2009,08,26,07,30,10.80
2009,08,26,07,31,10.80
2009,08,26,07,32,10.90
2009,08,26,07,33,11.00
2009,08,26,07,34,11.00
2009,08,26,07,35,11.00
2009,08,26,07,36,11.10
2009,08,26,07,37,11.00
2009,08,26,07,38,11.00
2009,08,26,07,39,11.00
2009,08,26,07,40,11.00
2009,08,26,07,41,11.00
2009,08,26,07,42,11.10
2009,08,26,07,43,11.10
2009,08,26,07,44,11.20
2009,08,26,07,45,11.20
2009,08,26,07,46,11.30
2009,08,26,07,47,11.40
2009,08,26,07,48,11.50
2009,08,26,07,49,11.50
2009,08,26,07,50,11.60
2009,08,26,07,51,11.70
2009,08,26,07,52,11.80
2009,08,26,07,53,11.90
2009,08,26,07,54,12.00
2009,08,26,07,55,12.00
2009,08,26,07,56,12.10
2009,08,26,07,57,12.20
2009,08,26,07,58,12.30
2009,08,26,07,59,12.30
2009,08,26,08,00,12.40
2009,08,26,08,01,12.50
2009,08,26,08,02,12.60
2009,08,26,08,03,12.60
2009,08,26,08,04,12.60
2009,08,26,08,05,12.70
2009,08,26,08,06,12.70
2009,08,26,08,07,12.80
2009,08,26,08,08,12.80
2009,08,26,08,09,12.90
2009,08,26,08,10,12.90
2009,08,26,08,11,13.00
2009,08,26,08,12,13.10
2009,08,26,08,13,13.20
2009,08,26,08,14,13.30
2009,08,26,08,15,13.40
2009,08,26,08,16,13.50
2009,08,26,08,17,13.50
2009,08,26,08,18,13.60
2009,08,26,08,19,13.60
2009,08,26,08,20,13.70
2009,08,26,08,21,13.70
2009,08,26,08,22,13.70
2009,08,26,08,23,13.80
2009,08,26,08,24,13.90
2009,08,26,08,25,14.00
2009,08,26,08,26,14.10
2009,08,26,08,27,14.20
2009,08,26,08,28,14.30
2009,08,26,08,29,14.50
2009,08,26,08,30,14.60
2009,08,26,08,31,14.70
2009,08,26,08,32,14.90
2009,08,26,08,33,15.00
2009,08,26,08,34,15.00
2009,08,26,08,35,15.20
2009,08,26,08,36,15.40
2009,08,26,08,37,15.50
2009,08,26,08,38,15.60
2009,08,26,08,39,15.70
2009,08,26,08,40,15.70
2009,08,26,08,41,15.80
2009,08,26,08,42,15.80
2009,08,26,08,43,15.90
2009,08,26,08,44,15.90
2009,08,26,08,45,15.90
2009,08,26,08,46,15.80
2009,08,26,08,47,15.80
2009,08,26,08,48,15.80
2009,08,26,08,49,15.80
2009,08,26,08,50,15.80
2009,08,26,08,51,15.80
2009,08,26,08,52,15.80
2009,08,26,08,53,15.80
2009,08,26,08,54,15.80
2009,08,26,08,55,15.80
2009,08,26,08,56,15.80
2009,08,26,08,57,15.80
2009,08,26,08,58,15.80
2009,08,26,08,59,15.80
2009,08,26,09,00,15.80
2009,08,26,09,01,15.80
2009,08,26,09,02,15.80
2009,08,26,09,03,15.90
2009,08,26,09,04,15.90
2009,08,26,09,05,16.00
2009,08,26,09,06,16.10
2009,08,26,09,07,16.10
2009,08,26,09,08,16.20
2009,08,26,09,09,16.20
2009,08,26,09,10,16.20
2009,08,26,09,11,16.30
2009,08,26,09,12,16.30
2009,08,26,09,13,16.40
2009,08,26,09,14,16.40
2009,08,26,09,15,16.50
2009,08,26,09,16,16.60
2009,08,26,09,17,16.60
2009,08,26,09,18,16.60
2009,08,26,09,19,16.70
2009,08,26,09,20,16.70
2009,08,26,09,21,16.80
2009,08,26,09,22,16.80
2009,08,26,09,23,16.90
2009,08,26,09,24,16.90
2009,08,26,09,25,17.00
2009,08,26,09,26,17.00
2009,08,26,09,27,17.00
2009,08,26,09,28,17.00
2009,08,26,09,29,16.90
2009,08,26,09,30,16.90
2009,08,26,09,31,16.90
2009,08,26,09,32,16.90
2009,08,26,09,33,16.90
2009,08,26,09,34,16.80
2009,08,26,09,35,16.80
2009,08,26,09,36,16.70
2009,08,26,09,37,16.70
2009,08,26,09,38,16.70
2009,08,26,09,39,16.60
2009,08,26,09,40,16.60
2009,08,26,09,41,16.60
2009,08,26,09,42,16.60
2009,08,26,09,43,16.50
2009,08,26,09,44,16.50
2009,08,26,09,45,16.50
2009,08,26,09,46,16.50
2009,08,26,09,47,16.60
2009,08,26,09,48,16.70
2009,08,26,09,49,16.70
2009,08,26,09,50,16.80
2009,08,26,09,51,16.80
2009,08,26,09,52,16.90
2009,08,26,09,53,16.90
2009,08,26,09,54,16.90
2009,08,26,09,55,16.90
2009,08,26,09,56,16.90
2009,08,26,09,57,17.00
2009,08,26,09,58,17.00
2009,08,26,09,59,17.00
2009,08,26,10,00,17.10
2009,08,26,10,01,17.20
2009,08,26,10,02,17.20
2009,08,26,10,03,17.30
2009,08,26,10,04,17.40
2009,08,26,10,05,17.40
2009,08,26,10,06,17.40
2009,08,26,10,07,17.40
2009,08,26,10,08,17.50
2009,08,26,10,09,17.50
2009,08,26,10,10,17.50
2009,08,26,10,11,17.60
2009,08,26,10,12,17.60
2009,08,26,10,13,17.60
2009,08,26,10,14,17.60
2009,08,26,10,15,17.60
2009,08,26,10,16,17.60
2009,08,26,10,17,17.60
2009,08,26,10,18,17.60
2009,08,26,10,19,17.60
2009,08,26,10,20,17.50
2009,08,26,10,21,17.40
2009,08,26,10,22,17.30
2009,08,26,10,23,17.30
2009,08,26,10,24,17.20
2009,08,26,10,25,17.20
2009,08,26,10,26,17.20
2009,08,26,10,27,17.20
2009,08,26,10,28,17.10
2009,08,26,10,29,17.10
2009,08,26,10,30,17.10
2009,08,26,10,31,17.00
2009,08,26,10,32,17.00
2009,08,26,10,33,16.90
2009,08,26,10,34,16.90
2009,08,26,10,35,16.90
2009,08,26,10,36,16.80
2009,08,26,10,37,16.80
2009,08,26,10,38,16.70
2009,08,26,10,39,16.70
2009,08,26,10,40,16.60
2009,08,26,10,41,16.60
2009,08,26,10,42,16.60
2009,08,26,10,43,16.70
2009,08,26,10,44,16.70
2009,08,26,10,45,16.70
2009,08,26,10,46,16.80
2009,08,26,10,47,16.80
2009,08,26,10,48,16.80
2009,08,26,10,49,16.80
2009,08,26,10,50,16.80
2009,08,26,10,51,16.80
2009,08,26,10,52,16.80
2009,08,26,10,53,16.80
2009,08,26,10,54,16.80
2009,08,26,10,55,16.80
2009,08,26,10,56,16.70
2009,08,26,10,57,16.70
2009,08,26,10,58,16.60
2009,08,26,10,59,16.50
2009,08,26,11,00,16.50
2009,08,26,11,01,16.40
2009,08,26,11,02,16.40
2009,08,26,11,03,16.40
2009,08,26,11,04,16.40
2009,08,26,11,05,16.40
2009,08,26,11,06,16.40
2009,08,26,11,07,16.50
2009,08,26,11,08,16.50
2009,08,26,11,09,16.60
2009,08,26,11,10,16.60
2009,08,26,11,11,16.70
2009,08,26,11,12,16.80
2009,08,26,11,13,16.80
2009,08,26,11,14,16.80
2009,08,26,11,15,16.90
2009,08,26,11,16,17.00
2009,08,26,11,17,17.10
2009,08,26,11,18,17.20
2009,08,26,11,19,17.20
2009,08,26,11,20,17.30
2009,08,26,11,21,17.40
2009,08,26,11,22,17.40
2009,08,26,11,23,17.40
2009,08,26,11,24,17.40
2009,08,26,11,25,17.40
2009,08,26,11,26,17.40
2009,08,26,11,27,17.50
2009,08,26,11,28,17.60
2009,08,26,11,29,17.60
2009,08,26,11,30,17.70
2009,08,26,11,31,17.80
2009,08,26,11,32,17.90
2009,08,26,11,33,17.90
2009,08,26,11,34,18.00
2009,08,26,11,35,18.00
2009,08,26,11,36,18.00
2009,08,26,11,37,17.90
2009,08,26,11,38,17.90
2009,08,26,11,39,17.90
2009,08,26,11,40,18.00
2009,08,26,11,41,18.00
2009,08,26,11,42,18.10
2009,08,26,11,43,18.10
2009,08,26,11,44,18.10
2009,08,26,11,45,18.20
2009,08,26,11,46,18.20
2009,08,26,11,47,18.20
2009,08,26,11,48,18.20
2009,08,26,11,49,18.20
2009,08,26,11,50,18.20
2009,08,26,11,51,18.10
2009,08,26,11,52,17.90
2009,08,26,11,53,17.90
2009,08,26,11,54,17.90
2009,08,26,11,55,18.00
2009,08,26,11,56,18.00
2009,08,26,11,57,18.10
2009,08,26,11,58,18.20
2009,08,26,11,59,18.20
2009,08,26,12,00,18.20
2009,08,26,12,01,18.30
2009,08,26,12,02,18.30
2009,08,26,12,03,18.40
2009,08,26,12,04,18.40
2009,08,26,12,05,18.40
2009,08,26,12,06,18.30
2009,08,26,12,07,18.30
2009,08,26,12,08,18.30
2009,08,26,12,09,18.20
2009,08,26,12,10,18.20
2009,08,26,12,11,18.10
2009,08,26,12,12,18.10
2009,08,26,12,13,18.00
2009,08,26,12,14,18.00
2009,08,26,12,15,18.00
2009,08,26,12,16,17.90
2009,08,26,12,17,17.90
2009,08,26,12,18,17.90
2009,08,26,12,19,17.90
2009,08,26,12,20,17.90
2009,08,26,12,21,17.90
2009,08,26,12,22,17.80
2009,08,26,12,23,17.80
2009,08,26,12,24,17.90
2009,08,26,12,25,17.90
2009,08,26,12,26,18.00
2009,08,26,12,27,18.00
2009,08,26,12,28,18.10
2009,08,26,12,29,18.10
2009,08,26,12,30,18.20
2009,08,26,12,31,18.20
2009,08,26,12,32,18.30
2009,08,26,12,33,18.40
2009,08,26,12,34,18.50
2009,08,26,12,35,18.60
2009,08,26,12,36,18.70
2009,08,26,12,37,18.80
2009,08,26,12,38,18.80
2009,08,26,12,39,18.80
2009,08,26,12,40,18.70
2009,08,26,12,41,18.70
2009,08,26,12,42,18.60
2009,08,26,12,43,18.60
2009,08,26,12,44,18.50
2009,08,26,12,45,18.40
2009,08,26,12,46,18.40
2009,08,26,12,47,18.40
2009,08,26,12,48,18.50
2009,08,26,12,49,18.60
2009,08,26,12,50,18.70
2009,08,26,12,51,18.70
2009,08,26,12,52,18.80
2009,08,26,12,53,18.90
2009,08,26,12,54,18.80
2009,08,26,12,55,18.80
2009,08,26,12,56,18.80
2009,08,26,12,57,18.80
2009,08,26,12,58,18.80
2009,08,26,12,59,18.90
2009,08,26,13,00,18.90
2009,08,26,13,01,18.90
2009,08,26,13,02,19.00
2009,08,26,13,03,19.00
2009,08,26,13,04,19.10
2009,08,26,13,05,19.10
2009,08,26,13,06,19.20
2009,08,26,13,07,19.20
2009,08,26,13,08,19.30
2009,08,26,13,09,19.40
2009,08,26,13,10,19.40
2009,08,26,13,11,19.40
2009,08,26,13,12,19.40
2009,08,26,13,13,19.40
2009,08,26,13,14,19.40
2009,08,26,13,15,19.50
2009,08,26,13,16,19.50
2009,08,26,13,17,19.60
2009,08,26,13,18,19.70
2009,08,26,13,19,19.80
2009,08,26,13,20,19.80
2009,08,26,13,21,19.70
2009,08,26,13,22,19.50
2009,08,26,13,23,19.40
2009,08,26,13,24,19.30
2009,08,26,13,25,19.30
2009,08,26,13,26,19.30
2009,08,26,13,27,19.30
2009,08,26,13,28,19.40
2009,08,26,13,29,19.40
2009,08,26,13,30,19.40
2009,08,26,13,31,19.40
2009,08,26,13,32,19.40
2009,08,26,13,33,19.50
2009,08,26,13,34,19.60
2009,08,26,13,35,19.60
2009,08,26,13,36,19.80
2009,08,26,13,37,19.80
2009,08,26,13,38,19.90
2009,08,26,13,39,20.00
2009,08,26,13,40,20.10
2009,08,26,13,41,20.20
2009,08,26,13,42,20.20
2009,08,26,13,43,20.20
2009,08,26,13,44,20.20
2009,08,26,13,45,20.30
2009,08,26,13,46,20.40
2009,08,26,13,47,20.60
2009,08,26,13,48,20.70
2009,08,26,13,49,20.80
2009,08,26,13,50,21.00
2009,08,26,13,51,21.20
2009,08,26,13,52,21.30
2009,08,26,13,53,21.50
2009,08,26,13,54,21.60
2009,08,26,13,55,21.60
2009,08,26,13,56,21.50
2009,08,26,13,57,21.40
2009,08,26,13,58,21.30
2009,08,26,13,59,21.30
2009,08,26,14,00,21.20
2009,08,26,14,01,21.10
2009,08,26,14,02,21.00
2009,08,26,14,03,21.00
2009,08,26,14,04,20.90
2009,08,26,14,05,20.90
2009,08,26,14,06,20.80
2009,08,26,14,07,20.70
2009,08,26,14,08,20.70
2009,08,26,14,09,20.70
2009,08,26,14,10,20.60
2009,08,26,14,11,20.60
2009,08,26,14,12,20.60
2009,08,26,14,13,20.50
2009,08,26,14,14,20.50
2009,08,26,14,15,20.40
2009,08,26,14,16,20.40
2009,08,26,14,17,20.40
2009,08,26,14,18,20.40
2009,08,26,14,19,20.50
2009,08,26,14,20,20.60
2009,08,26,14,21,20.70
2009,08,26,14,22,20.70
2009,08,26,14,23,20.80
2009,08,26,14,24,20.90
2009,08,26,14,25,20.90
2009,08,26,14,26,20.90
2009,08,26,14,27,20.90
2009,08,26,14,28,20.90
2009,08,26,14,29,21.00
2009,08,26,14,30,21.00
2009,08,26,14,31,21.00
2009,08,26,14,32,21.00
2009,08,26,14,33,20.90
2009,08,26,14,34,20.90
2009,08,26,14,35,20.90
2009,08,26,14,36,20.90
2009,08,26,14,37,20.90
2009,08,26,14,38,21.00
2009,08,26,14,39,21.00
2009,08,26,14,40,21.10
2009,08,26,14,41,21.10
2009,08,26,14,42,21.10
2009,08,26,14,43,21.10
2009,08,26,14,44,21.10
2009,08,26,14,45,21.20
2009,08,26,14,46,21.20
2009,08,26,14,47,21.20
2009,08,26,14,48,21.10
2009,08,26,14,49,21.10
2009,08,26,14,50,21.00
2009,08,26,14,51,20.90
2009,08,26,14,52,20.90
2009,08,26,14,53,20.80
2009,08,26,14,54,20.80
2009,08,26,14,55,20.80
2009,08,26,14,56,20.80
2009,08,26,14,57,20.80
2009,08,26,14,58,20.70
2009,08,26,14,59,20.60
2009,08,26,15,00,20.60
2009,08,26,15,01,20.50
2009,08,26,15,02,20.50
2009,08,26,15,03,20.40
2009,08,26,15,04,20.40
2009,08,26,15,05,20.40
2009,08,26,15,06,20.30
2009,08,26,15,07,20.30
2009,08,26,15,08,20.30
2009,08,26,15,09,20.20
2009,08,26,15,10,20.10
2009,08,26,15,11,20.10
2009,08,26,15,12,20.00
2009,08,26,15,13,19.90
2009,08,26,15,14,19.80
2009,08,26,15,15,19.70
2009,08,26,15,16,19.70
2009,08,26,15,17,19.60
2009,08,26,15,18,19.50
2009,08,26,15,19,19.50
2009,08,26,15,20,19.40
2009,08,26,15,21,19.40
2009,08,26,15,22,19.30
2009,08,26,15,23,19.40
2009,08,26,15,24,19.40
2009,08,26,15,25,19.40
2009,08,26,15,26,19.40
2009,08,26,15,27,19.40
2009,08,26,15,28,19.40
2009,08,26,15,29,19.40
2009,08,26,15,30,19.50
2009,08,26,15,31,19.50
2009,08,26,15,32,19.50
2009,08,26,15,33,19.60
2009,08,26,15,34,19.60
2009,08,26,15,35,19.60
2009,08,26,15,36,19.60
2009,08,26,15,37,19.60
2009,08,26,15,38,19.60
2009,08,26,15,39,19.60
2009,08,26,15,40,19.70
2009,08,26,15,41,19.70
2009,08,26,15,42,19.70
2009,08,26,15,43,19.70
2009,08,26,15,44,19.70
2009,08,26,15,45,19.60
2009,08,26,15,46,19.60
2009,08,26,15,47,19.60
2009,08,26,15,48,19.50
2009,08,26,15,49,19.40
2009,08,26,15,50,19.40
2009,08,26,15,51,19.40
2009,08,26,15,52,19.30
2009,08,26,15,53,19.30
2009,08,26,15,54,19.30
2009,08,26,15,55,19.20
2009,08,26,15,56,19.20
2009,08,26,15,57,19.20
2009,08,26,15,58,19.20
2009,08,26,15,59,19.20
2009,08,26,16,00,19.20
2009,08,26,16,01,19.20
2009,08,26,16,02,19.20
2009,08,26,16,03,19.10
2009,08,26,16,04,19.20
2009,08,26,16,05,19.10
2009,08,26,16,06,19.10
2009,08,26,16,07,19.10
2009,08,26,16,08,19.10
2009,08,26,16,09,19.10
2009,08,26,16,10,19.10
2009,08,26,16,11,19.20
2009,08,26,16,12,19.20
2009,08,26,16,13,19.20
2009,08,26,16,14,19.20
2009,08,26,16,15,19.20
2009,08,26,16,16,19.10
2009,08,26,16,17,19.10
2009,08,26,16,18,19.10
2009,08,26,16,19,19.10
2009,08,26,16,20,19.10
2009,08,26,16,21,19.10
2009,08,26,16,22,19.10
2009,08,26,16,23,19.10
2009,08,26,16,24,19.10
2009,08,26,16,25,19.10
2009,08,26,16,26,19.20
2009,08,26,16,27,19.20
2009,08,26,16,28,19.20
2009,08,26,16,29,19.20
2009,08,26,16,30,19.20
2009,08,26,16,31,19.20
2009,08,26,16,32,19.20
2009,08,26,16,33,19.20
2009,08,26,16,34,19.30
2009,08,26,16,35,19.30
2009,08,26,16,36,19.30
2009,08,26,16,37,19.40
2009,08,26,16,38,19.40
2009,08,26,16,39,19.40
2009,08,26,16,40,19.40
2009,08,26,16,41,19.50
2009,08,26,16,42,19.50
2009,08,26,16,43,19.50
2009,08,26,16,44,19.50
2009,08,26,16,45,19.50
2009,08,26,16,46,19.60
2009,08,26,16,47,19.60
2009,08,26,16,48,19.60
2009,08,26,16,49,19.70
2009,08,26,16,50,19.70
2009,08,26,16,51,19.70
2009,08,26,16,52,19.70
2009,08,26,16,53,19.70
2009,08,26,16,54,19.60
2009,08,26,16,55,19.60
2009,08,26,16,56,19.50
2009,08,26,16,57,19.50
2009,08,26,16,58,19.50
2009,08,26,16,59,19.50
2009,08,26,17,00,19.50
2009,08,26,17,01,19.60
2009,08,26,17,02,19.60
2009,08,26,17,03,19.60
2009,08,26,17,04,19.60
2009,08,26,17,05,19.50
2009,08,26,17,06,19.50
2009,08,26,17,07,19.40
2009,08,26,17,08,19.40
2009,08,26,17,09,19.30
2009,08,26,17,10,19.30
2009,08,26,17,11,19.30
2009,08,26,17,12,19.30
2009,08,26,17,13,19.20
2009,08,26,17,14,19.20
2009,08,26,17,15,19.20
2009,08,26,17,16,19.20
2009,08,26,17,17,19.20
2009,08,26,17,18,19.20
2009,08,26,17,19,19.20
2009,08,26,17,20,19.10
2009,08,26,17,21,19.10
2009,08,26,17,22,19.10
2009,08,26,17,23,19.10